Walhalla, ND

5:24 PM CST on November 22, 2017 (GMT -0600)
Walhalla

Weather History for K96D - March, 2013

Change the Weather History Date:

Monday, March 18, 2013

  Actual Average (KGAF) Record (KGAF)
Temperature  
Mean Temperature 9 °F -  
Max Temperature 15 °F 37 °F 69 °F (2012)
Min Temperature 3 °F 19 °F -5 °F (1950)
Degree Days  
Heating Degree Days 56    
Moisture  
Dew Point 8 °F    
Average Humidity 87    
Maximum Humidity 100    
Minimum Humidity 61    
Precipitation  
Precipitation 0.85 in - - ()
Sea Level Pressure  
Sea Level Pressure 29.72 in    
Wind  
Wind Speed 13 mph (NNW)    
Max Wind Speed 26 mph    
Max Gust Speed 37 mph    
Visibility 5 miles    
Events Rain , Snow    
Averages and records for this station are not official NWS values.
T = Trace of Precipitation, MM = Missing Value Source: NWS Daily Summary

Daily Weather History Graph

Daily Weather History Graph

Search for Another Location

Airport or City:

Trip Planner

Search our weather history database for the weather conditions in past years. The results will help you decide how hot, cold, wet, or windy it might be!

Date:

Astronomy

Mar. 18, 2013 Rise Set
Actual Time 7:38 AM CDT 7:41 PM CDT
Civil Twilight 7:06 AM CDT 8:13 PM CDT
Nautical Twilight 6:29 AM CDT 8:50 PM CDT
Astronomical Twilight 5:51 AM CDT 9:28 PM CDT
Moon 11:09 AM CDT (3/18) 2:11 AM CDT (3/18)
Length of Visible Light 13h 06m
Length of Day
12h 03m
Waxing Crescent, 41% of the Moon is Illuminated
Mar 18
Waxing Crescent
Mar 19
First Quarter
Mar 27
Full
Apr 2
Last Quarter
Apr 10
New

Hourly Weather History & Observations

Time (CDT) Temp. Windchill Dew Point Humidity Pressure Visibility Wind Dir Wind Speed Gust Speed Precip Events Conditions
12:15 AM 15.8 °F 5.1 °F 15.8 °F 100% 29.63 in 2.0 mi East 8.1 mph - N/A Snow Light Snow
12:35 AM 15.8 °F 5.1 °F 15.8 °F 100% 29.62 in 2.0 mi East 8.1 mph - 0.03 in Snow Light Snow
12:55 AM 15.8 °F 4.2 °F 15.8 °F 100% 29.61 in 4.0 mi ESE 9.2 mph - 0.04 in Snow Light Snow
1:15 AM 15.8 °F 6.1 °F 15.8 °F 100% 29.61 in 5.0 mi East 6.9 mph - N/A   Overcast
1:35 AM 15.8 °F 5.1 °F 15.8 °F 100% 29.60 in 2.5 mi East 8.1 mph - 0.01 in Snow Light Snow
1:55 AM 15.8 °F 6.1 °F 15.8 °F 100% 29.59 in 3.0 mi East 6.9 mph - 0.03 in Snow Light Snow
2:15 AM 15.8 °F 6.1 °F 15.8 °F 100% 29.59 in 4.0 mi East 6.9 mph - 0.01 in Snow Light Snow
2:35 AM 15.8 °F 8.6 °F 15.8 °F 100% 29.58 in 5.0 mi NE 4.6 mph - 0.01 in Snow Light Snow
2:55 AM 15.8 °F 8.6 °F 15.8 °F 100% 29.58 in 5.0 mi NE 4.6 mph - 0.02 in Snow Light Snow
3:15 AM 15.8 °F 8.6 °F 15.8 °F 100% 29.57 in 5.0 mi NNE 4.6 mph - N/A Snow Light Snow
3:35 AM 15.8 °F 7.2 °F 15.8 °F 100% 29.57 in 3.0 mi North 5.8 mph - 0.03 in Snow Light Snow
3:55 AM 15.8 °F 6.1 °F 15.8 °F 100% 29.56 in 3.0 mi North 6.9 mph - 0.07 in Snow Light Snow
4:15 AM 15.8 °F 4.2 °F 15.8 °F 100% 29.56 in 2.0 mi North 9.2 mph - 0.05 in Snow Light Snow
4:35 AM 15.8 °F 4.2 °F 15.8 °F 100% 29.55 in 3.0 mi North 9.2 mph - 0.09 in Snow Light Snow
4:55 AM 15.8 °F 4.2 °F 15.8 °F 100% 29.55 in 2.5 mi North 9.2 mph - 0.12 in Snow Light Snow
5:15 AM 15.8 °F 2.7 °F 15.8 °F 100% 29.55 in 1.8 mi North 11.5 mph - 0.03 in Snow Light Snow
5:35 AM 15.8 °F 2.1 °F 15.8 °F 100% 29.55 in 2.5 mi North 12.7 mph - 0.06 in Snow Light Snow
5:55 AM 15.8 °F 3.4 °F 15.8 °F 100% 29.55 in 1.8 mi NNW 10.4 mph - 0.12 in Snow Light Snow
6:15 AM 15.8 °F 3.4 °F 15.8 °F 100% 29.56 in 1.0 mi NNW 10.4 mph - 0.07 in Snow Light Snow
6:35 AM 15.8 °F 0.3 °F 15.8 °F 100% 29.56 in 1.2 mi NNW 16.1 mph - 0.17 in Snow Light Snow
6:55 AM 14.0 °F -3.0 °F 14.0 °F 100% 29.57 in 1.8 mi NNW 18.4 mph 27.6 mph 0.21 in Snow Light Snow
7:15 AM 14.0 °F -3.9 °F 14.0 °F 100% 29.58 in 2.0 mi NNW 20.7 mph 25.3 mph N/A Snow Light Snow
7:35 AM 12.2 °F -6.3 °F 10.4 °F 92% 29.59 in 1.5 mi NNW 20.7 mph 31.1 mph 0.01 in Snow Light Snow
7:55 AM 10.4 °F -8.6 °F 10.4 °F 100% 29.59 in 3.0 mi NNW 20.7 mph 29.9 mph 0.03 in Rain Light Freezing Rain
8:15 AM 10.4 °F -9.1 °F 10.4 °F 100% 29.60 in 2.5 mi NNW 21.9 mph 32.2 mph N/A Snow Light Snow
8:35 AM 10.4 °F -8.6 °F 10.4 °F 100% 29.61 in 1.5 mi NNW 20.7 mph 32.2 mph 0.02 in Snow Light Snow
8:55 AM 10.4 °F -8.6 °F 10.4 °F 100% 29.61 in 1.0 mi NNW 20.7 mph 29.9 mph 0.05 in Snow Light Snow
9:15 AM 10.4 °F -8.2 °F 8.6 °F 92% 29.62 in 0.8 mi NNW 19.6 mph 28.8 mph 0.03 in Snow Light Snow
9:35 AM 10.4 °F -7.7 °F 8.6 °F 92% 29.63 in 1.0 mi NNW 18.4 mph 28.8 mph 0.06 in Snow Light Snow
9:55 AM 10.4 °F -9.5 °F 8.6 °F 92% 29.64 in 1.8 mi NNW 23.0 mph 31.1 mph 0.08 in Snow Light Snow
10:35 AM 10.4 °F -8.6 °F 8.6 °F 92% 29.66 in 1.2 mi NNW 20.7 mph 31.1 mph 0.02 in Snow Light Snow
10:55 AM 10.4 °F -10.7 °F 8.6 °F 92% 29.66 in 1.8 mi NNW 26.5 mph 36.8 mph 0.04 in Snow Light Snow
11:15 AM 10.4 °F -8.6 °F 8.6 °F 92% 29.67 in 1.8 mi NNW 20.7 mph 31.1 mph N/A Rain Light Freezing Rain
11:35 AM 10.4 °F -7.7 °F 8.6 °F 92% 29.69 in 2.0 mi NNW 18.4 mph 31.1 mph 0.02 in   Overcast
11:55 AM 10.4 °F -10.3 °F 8.6 °F 92% 29.70 in 2.0 mi NNW 25.3 mph 32.2 mph 0.02 in   Overcast
12:15 PM 10.4 °F -9.1 °F 8.6 °F 92% 29.71 in 2.5 mi NNW 21.9 mph 31.1 mph N/A Snow Light Snow
12:35 PM 10.4 °F -7.7 °F 8.6 °F 92% 29.72 in 2.5 mi NNW 18.4 mph 32.2 mph N/A Snow Light Snow
12:55 PM 12.2 °F -7.9 °F 8.6 °F 85% 29.72 in 1.2 mi NNW 25.3 mph 32.2 mph 0.01 in Snow Light Snow
1:15 PM 12.2 °F -7.1 °F 8.6 °F 85% 29.73 in 1.2 mi NNW 23.0 mph 35.7 mph N/A Snow Light Snow
1:35 PM 12.2 °F -7.1 °F 8.6 °F 85% 29.73 in 2.0 mi NNW 23.0 mph 34.5 mph N/A   Clear
1:55 PM 12.2 °F -6.7 °F 8.6 °F 85% 29.74 in 1.8 mi NNW 21.9 mph 33.4 mph 0.01 in   Clear
2:15 PM 12.2 °F -7.1 °F 8.6 °F 85% 29.75 in 2.5 mi NNW 23.0 mph 31.1 mph N/A   Clear
2:35 PM 14.0 °F -3.0 °F 8.6 °F 79% 29.76 in 4.0 mi NNW 18.4 mph 31.1 mph N/A   Haze
2:55 PM 14.0 °F -5.1 °F 6.8 °F 73% 29.77 in 3.0 mi NNW 24.2 mph 35.7 mph N/A   Haze
3:15 PM 14.0 °F -3.9 °F 6.8 °F 73% 29.78 in 6.0 mi NW 20.7 mph 29.9 mph N/A   Haze
3:35 PM 14.0 °F -4.3 °F 8.6 °F 79% 29.79 in 10.0 mi NW 21.9 mph 26.5 mph N/A   Mostly Cloudy
3:55 PM 14.0 °F -2.5 °F 6.8 °F 73% 29.80 in 8.0 mi NNW 17.3 mph 31.1 mph N/A   Mostly Cloudy
4:15 PM 14.0 °F -3.0 °F 6.8 °F 73% 29.80 in 10.0 mi NNW 18.4 mph 27.6 mph N/A   Mostly Cloudy
4:35 PM 12.2 °F -4.8 °F 5.0 °F 73% 29.81 in 10.0 mi NNW 17.3 mph 29.9 mph N/A   Mostly Cloudy
4:55 PM 12.2 °F -6.7 °F 5.0 °F 73% 29.82 in 7.0 mi NNW 21.9 mph 31.1 mph N/A Snow Light Snow
5:15 PM 12.2 °F -5.8 °F 5.0 °F 73% 29.83 in 10.0 mi NNW 19.6 mph 28.8 mph N/A Snow Light Snow
5:35 PM 12.2 °F -5.8 °F 5.0 °F 73% 29.84 in 10.0 mi NNW 19.6 mph 28.8 mph N/A Snow Light Snow
5:55 PM 12.2 °F -4.3 °F 5.0 °F 73% 29.85 in 10.0 mi NNW 16.1 mph 26.5 mph N/A   Overcast
6:15 PM 12.2 °F -4.3 °F 5.0 °F 73% 29.85 in 10.0 mi NNW 16.1 mph 24.2 mph N/A   Overcast
6:35 PM 10.4 °F -7.7 °F 5.0 °F 79% 29.86 in 10.0 mi NNW 18.4 mph 24.2 mph N/A   Overcast
6:55 PM 10.4 °F -6.6 °F 5.0 °F 79% 29.87 in 10.0 mi NNW 16.1 mph 24.2 mph N/A   Overcast
7:15 PM 10.4 °F -6.0 °F 3.2 °F 73% 29.88 in 10.0 mi NNW 15.0 mph 20.7 mph N/A Snow Light Snow
7:35 PM 10.4 °F -6.0 °F 1.4 °F 67% 29.89 in 10.0 mi NNW 15.0 mph 18.4 mph N/A   Mostly Cloudy
7:55 PM 8.6 °F -6.3 °F 1.4 °F 73% 29.90 in 10.0 mi NW 11.5 mph 18.4 mph N/A   Mostly Cloudy
8:15 PM 8.6 °F -7.7 °F 1.4 °F 73% 29.91 in 10.0 mi NW 13.8 mph 19.6 mph N/A   Scattered Clouds
8:35 PM 8.6 °F -5.5 °F 1.4 °F 73% 29.92 in 10.0 mi NNW 10.4 mph - N/A   Clear
8:55 PM 6.8 °F -7.8 °F -0.4 °F 72% 29.92 in 10.0 mi NW 10.4 mph - N/A   Clear
9:15 PM 5.0 °F -9.1 °F -0.4 °F 78% 29.93 in 10.0 mi NW 9.2 mph - N/A   Clear
9:35 PM 5.0 °F -10.8 °F -2.2 °F 72% 29.94 in 10.0 mi NW 11.5 mph 16.1 mph N/A   Partly Cloudy
9:55 PM 5.0 °F -10.8 °F -4.0 °F 66% 29.95 in 10.0 mi NW 11.5 mph - N/A   Scattered Clouds
10:15 PM 5.0 °F -10.0 °F -4.0 °F 66% 29.95 in 10.0 mi NW 10.4 mph - N/A   Scattered Clouds
10:55 PM 5.0 °F -10.8 °F -5.8 °F 61% 29.96 in 10.0 mi NW 11.5 mph 17.3 mph N/A   Scattered Clouds
11:15 PM 3.2 °F -13.1 °F -5.8 °F 66% 29.96 in 10.0 mi NW 11.5 mph - N/A   Partly Cloudy
11:35 PM 3.2 °F -13.1 °F -5.8 °F 66% 29.97 in 10.0 mi NW 11.5 mph 17.3 mph N/A   Partly Cloudy
11:55 PM 3.2 °F -13.1 °F -5.8 °F 66% 29.98 in 10.0 mi NW 11.5 mph - N/A   Clear